This demonstration page uses our WeatherBlox Daily Observations layout. Learn more.

Left ArrowRight Arrow

Hourly Observations for May 9, 2019

Temp ( °F °C ) Dew Point ( °F °C ) Humidity (%) Winds ( mph kmh ) Pressure ( in mb ) Visibility ( mi km ) Precip ( " mm )
12:15 am 00:15 Clear 70 21 64 18 83 83 SSE 8 13 29.84 1010 10 16.0934 N/A
12:35 am 00:35 Clear 70 21 64 18 83 83 SSE 7 11 29.83 1010 10 16.0934 N/A
12:55 am 00:55 Clear 70 21 64 18 83 83 SSE 8 13 29.83 1010 10 16.0934 N/A
1:16 am 01:16 Partly Cloudy 70 21 64 18 83 83 SSE 9 15 29.82 1010 10 16.0934 N/A
1:35 am 01:35 Clear 70 21 64 18 83 83 SSE 12 19 29.82 1010 10 16.0934 N/A
1:55 am 01:55 Clear 70 21 64 18 83 83 SSE 13 20 29.81 1009 10 16.0934 N/A
2:15 am 02:15 Clear 72 22 64 18 78 78 SSE 13 20 29.79 1009 10 16.0934 N/A
2:35 am 02:35 Clear 72 22 64 18 78 78 SSE 12 19 29.79 1009 10 16.0934 N/A
2:55 am 02:55 Clear 72 22 64 18 78 78 S 14 22 29.79 1009 10 16.0934 N/A
3:15 am 03:15 Clear 72 22 64 18 78 78 S 13 20 29.79 1009 10 16.0934 N/A
3:35 am 03:35 Clear 72 22 64 18 78 78 S 13 20 29.78 1009 10 16.0934 N/A
3:55 am 03:55 Clear 70 21 64 18 83 83 S 14 22 29.79 1009 10 16.0934 N/A
4:15 am 04:15 Clear 70 21 66 19 88 88 S 13 20 29.78 1008 10 16.0934 N/A
4:36 am 04:36 Clear 72 22 66 19 83 83 S 15 24 29.75 1008 10 16.0934 N/A
4:55 am 04:55 Clear 72 22 66 19 83 83 S 15 24 29.75 1008 10 16.0934 N/A
5:15 am 05:15 Clear 72 22 66 19 83 83 S 14 22 29.75 1008 10 16.0934 N/A
5:35 am 05:35 Clear 72 22 66 19 83 83 S 16 26 29.74 1007 10 16.0934 N/A
5:55 am 05:55 Partly Cloudy 72 22 66 19 83 83 S 13 20 29.73 1007 10 16.0934 N/A
6:16 am 06:16 Partly Cloudy 72 22 66 19 83 83 S 15 24 29.73 1007 10 16.0934 N/A
6:35 am 06:35 Mostly Cloudy 72 22 66 19 83 83 S 15 24 29.74 1007 10 16.0934 N/A
6:55 am 06:55 Cloudy 70 21 66 19 88 88 S 13 20 29.75 1007 10 16.0934 N/A
7:15 am 07:15 Cloudy 70 21 66 19 88 88 S 13 20 29.74 1007 10 16.0934 N/A
7:35 am 07:35 Cloudy 70 21 66 19 88 88 S 13 20 29.75 1007 10 16.0934 N/A
7:55 am 07:55 Cloudy 70 21 66 19 88 88 S 13 20 29.76 1008 10 16.0934 N/A
8:15 am 08:15 Cloudy 70 21 66 19 88 88 S 12 19 29.76 1008 10 16.0934 N/A
8:36 am 08:36 Cloudy 68 20 66 19 94 94 S 21 33 29.76 1008 10 16.0934 N/A
8:55 am 08:55 Cloudy 66 19 66 19 100 100 S 17 28 29.76 1008 10 16.0934 N/A
9:15 am 09:15 Cloudy 66 19 66 19 100 100 S 15 24 29.77 1008 10 16.0934 N/A
9:35 am 09:35 Cloudy 68 20 66 19 94 94 S 16 26 29.76 1008 10 16.0934 N/A
9:55 am 09:55 Mostly Cloudy 68 20 68 20 100 100 SSW 18 30 29.77 1008 10 16.0934 N/A
10:15 am 10:15 Cloudy 68 20 68 20 100 100 SSW 15 24 29.77 1008 10 16.0934 N/A
10:35 am 10:35 Cloudy 70 21 68 20 94 94 SSW 16 26 29.78 1008 10 16.0934 N/A
10:55 am 10:55 Cloudy 70 21 68 20 94 94 SSW 15 24 29.78 1008 10 16.0934 N/A
11:15 am 11:15 Cloudy 70 21 68 20 94 94 SW 16 26 29.79 1009 10 16.0934 N/A
11:35 am 11:35 Cloudy 72 22 68 20 88 88 SSW 22 35 29.79 1009 10 16.0934 N/A
11:55 am 11:55 Cloudy 72 22 68 20 88 88 SSW 14 22 29.8 1009 10 16.0934 N/A
12:15 pm 12:15 Cloudy 68 20 68 20 100 100 S 14 22 29.81 1009 10 16.0934 N/A
12:35 pm 12:35 Mostly Cloudy 70 21 70 21 100 100 SSW 13 20 29.81 1009 10 16.0934 N/A
12:56 pm 12:56 Mostly Cloudy 70 21 68 20 94 94 SSW 20 31 29.81 1009 10 16.0934 N/A
1:15 pm 13:15 Mostly Cloudy 70 21 68 20 94 94 SSW 17 28 29.82 1010 10 16.0934 N/A
1:35 pm 13:35 Cloudy 70 21 68 20 94 94 SSW 18 30 29.82 1010 10 16.0934 N/A
1:55 pm 13:55 Mostly Cloudy 72 22 68 20 88 88 SSW 16 26 29.8 1009 10 16.0934 N/A
2:15 pm 14:15 Mostly Cloudy 72 22 68 20 88 88 SSW 17 28 29.8 1009 10 16.0934 N/A
2:35 pm 14:35 Mostly Cloudy 70 21 66 19 88 88 SW 20 31 29.82 1010 10 16.0934 N/A
2:55 pm 14:55 Cloudy 70 21 66 19 88 88 SW 17 28 29.82 1010 10 16.0934 N/A
3:15 pm 15:15 Cloudy 72 22 66 19 83 83 SSW 13 20 29.81 1010 10 16.0934 N/A
3:36 pm 15:36 Mostly Cloudy 70 21 68 20 94 94 SSW 14 22 29.82 1010 10 16.0934 N/A
3:55 pm 15:55 Mostly Cloudy 70 21 66 19 88 88 SSW 15 24 29.82 1010 10 16.0934 N/A
4:15 pm 16:15 Mostly Cloudy 70 21 66 19 88 88 SW 17 28 29.82 1010 10 16.0934 N/A
4:35 pm 16:35 Mostly Cloudy 70 21 66 19 88 88 SSW 17 28 29.82 1010 10 16.0934 N/A
4:55 pm 16:55 Partly Cloudy 72 22 66 19 83 83 SSW 13 20 29.81 1010 10 16.0934 N/A
5:15 pm 17:15 Partly Cloudy 72 22 68 20 88 88 SSW 13 20 29.81 1010 10 16.0934 N/A
5:35 pm 17:35 Partly Cloudy 72 22 66 19 83 83 SSW 15 24 29.81 1010 10 16.0934 N/A
5:55 pm 17:55 Mostly Cloudy 70 21 66 19 88 88 S 14 22 29.82 1010 10 16.0934 N/A
6:15 pm 18:15 Cloudy 70 21 66 19 88 88 SSW 12 19 29.82 1010 10 16.0934 N/A
6:35 pm 18:35 Mostly Cloudy 70 21 66 19 88 88 S 13 20 29.82 1010 10 16.0934 N/A
6:55 pm 18:55 Mostly Cloudy 72 22 66 19 83 83 SSW 10 17 29.81 1010 10 16.0934 N/A
7:15 pm 19:15 Cloudy 70 21 66 19 88 88 SSW 13 20 29.82 1010 10 16.0934 N/A
7:35 pm 19:35 Cloudy 70 21 66 19 88 88 S 13 20 29.82 1010 10 16.0934 N/A
7:55 pm 19:55 Partly Cloudy 70 21 66 19 88 88 S 13 20 29.81 1009 10 16.0934 N/A
8:15 pm 20:15 Sunny 68 20 66 19 94 94 S 9 15 29.81 1009 10 16.0934 N/A
8:35 pm 20:35 Partly Cloudy 68 20 64 18 88 88 S 10 17 29.82 1010 10 16.0934 N/A
8:55 pm 20:55 Mostly Cloudy 66 19 64 18 94 94 S 9 15 29.82 1010 10 16.0934 N/A
9:15 pm 21:15 Partly Cloudy 66 19 64 18 94 94 S 9 15 29.82 1010 10 16.0934 N/A
9:36 pm 21:36 Partly Cloudy 66 19 64 18 94 94 S 10 17 29.82 1010 10 16.0934 N/A
9:55 pm 21:55 Cloudy 66 19 66 19 100 100 NW 13 20 29.85 1011 7 11.26538 N/A
10:15 pm 22:15 Cloudy 61 16 61 16 100 100 NW 12 19 29.88 1012 1.25 2.011675 N/A
10:36 pm 22:36 Cloudy 61 16 61 16 100 100 NW 10 17 29.89 1012 4 6.43736 N/A
10:55 pm 22:55 Cloudy 59 15 59 15 100 100 WNW 13 20 29.9 1013 7 11.26538 N/A
11:15 pm 23:15 Cloudy 59 15 59 15 100 100 W 12 19 29.91 1013 5 8.0467 N/A
11:35 pm 23:35 Cloudy 59 15 59 15 100 100 WNW 9 15 29.91 1013 7 11.26538 N/A
11:55 pm 23:55 Cloudy 57 14 57 14 100 100 WNW 9 15 29.92 1013 10 16.0934 N/A

Powered by AerisWeather